This is the latest recevied weather packets stored in our database for station/object WZ8H. If no packets are shown the sender has not sent any weather packets the latest 10 day(s).
| Time | Temp. | Humidity | Pressure | Rain* | Wind** | Luminosity | Snow |
|---|---|---|---|---|---|---|---|
| 1778076960 | 11.11° C | 74% | 1010.7 hPa | 0 mm | - | 271 W/m² | - |
| 1778076648 | 11.11° C | 74% | 1010.6 hPa | 0 mm | - | 582 W/m² | - |
| 1778076345 | 11.11° C | 77% | 1010.6 hPa | 0 mm | - | 555 W/m² | - |
| 1778076040 | 11.11° C | 75% | 1010.5 hPa | 0 mm | - | 346 W/m² | - |
| 1778075738 | 10.56° C | 74% | 1010.4 hPa | 0 mm | - | 355 W/m² | - |
| 1778075440 | 10.56° C | 76% | 1010.4 hPa | 0 mm | - | 394 W/m² | - |
| 1778075120 | 10.56° C | 78% | 1010.2 hPa | 0 mm | - | 606 W/m² | - |
| 1778074800 | 10.56° C | 79% | 1010.1 hPa | 0 mm | - | 339 W/m² | - |
| 1778074501 | 10.56° C | 79% | 1010 hPa | 0 mm | - | 332 W/m² | - |
| 1778074205 | 10° C | 80% | 1010 hPa | 0 mm | - | 253 W/m² | - |
| 1778073881 | 10° C | 83% | 1009.9 hPa | 0 mm | - | 146 W/m² | - |
| 1778073557 | 9.44° C | 86% | 1010 hPa | 0 mm | - | 225 W/m² | - |
| 1778073257 | 9.44° C | 89% | 1009.9 hPa | 0 mm | - | 221 W/m² | - |
| 1778072959 | 9.44° C | 90% | 1009.8 hPa | 0 mm | - | 241 W/m² | - |
| 1778072635 | 9.44° C | 91% | 1009.6 hPa | 0 mm | - | 241 W/m² | - |
| 1778072335 | 9.44° C | 91% | 1009.6 hPa | 0 mm | - | 153 W/m² | - |
| 1778072039 | 8.89° C | 91% | 1009.5 hPa | 0 mm | - | 153 W/m² | - |
| 1778071736 | 8.89° C | 91% | 1009.4 hPa | 0 mm | - | 153 W/m² | - |
| 1778071431 | 8.89° C | 91% | 1009.3 hPa | 0 mm | - | 160 W/m² | - |
| 1778071127 | 8.33° C | 91% | 1009.3 hPa | 0 mm | - | 160 W/m² | - |
| 1778070827 | 8.33° C | 92% | 1009.2 hPa | 0 mm | - | 130 W/m² | - |
| 1778070517 | 8.33° C | 92% | 1009.2 hPa | 0 mm | - | 172 W/m² | - |
| 1778070193 | 8.33° C | 92% | 1009.1 hPa | 0 mm | - | 178 W/m² | - |
| 1778069869 | 7.78° C | 92% | 1009 hPa | 0 mm | - | 128 W/m² | - |
| 1778069541 | 7.78° C | 92% | 1008.9 hPa | 0 mm | - | 105 W/m² | - |
* Rain latest hour (hover to see other rain measurements)
** Current wind speed in m/s (hover to see current wind gust speed)